QPF
0.00 0.00 0.00 0.00 0.00 0.00 0.00 0.01 0.01 0.01 0.00 0.00 0.00 0.00 0.00 0.00 0.00 0.00 0.00 0.00 0.01 0.01 0.01 0.00 0.00 0.00 0.01 0.01 0.01 0.02 0.03 0.03 0.02 0.03 0.03 0.04 0.06 0.06
0.00 0.00 0.00 0.00 0.00 0.00 0.00 0.00 0.01 0.01 0.00 0.00 0.00 0.00 0.00 0.00 0.00 0.00 0.00 0.00 0.00 0.00 0.00 0.00 0.00 0.00 0.00 0.00 0.01 0.02 0.03 0.03 0.03 0.03 0.04 0.04 0.05 0.05
0.00 0.00 0.00 0.00 0.00 0.00 0.00 0.00 0.00 0.00 0.00 0.00 0.00 0.00 0.00 0.00 0.01 0.00 0.00 0.00 0.00 0.00 0.00 0.00 0.00 0.00 0.00 0.00 0.01 0.01 0.02 0.02 0.03 0.04 0.04 0.05 0.05 0.04
0.00 0.00 0.00 0.00 0.00 0.00 0.00 0.00 0.00 0.00 0.00 0.00 0.00 0.00 0.00 0.01 0.01 0.01 0.00 0.00 0.00 0.00 0.00 0.00 0.00 0.00 0.00 0.00 0.00 0.01 0.01 0.01 0.02 0.02 0.03 0.05 0.05 0.03
0.00 0.00 0.00 0.00 0.00 0.00 0.00 0.00 0.00 0.00 0.00 0.00 0.00 0.00 0.00 0.00 0.01 0.00 0.00 0.00 0.00 0.00 0.00 0.00 0.00 0.00 0.00 0.00 0.00 0.00 0.01 0.01 0.01 0.01 0.01 0.02 0.04 0.03
0.00 0.00 0.00 0.00 0.00 0.00 0.00 0.00 0.00 0.00 0.00 0.01 0.01 0.01 0.01 0.01 0.00 0.00 0.00 0.00 0.00 0.00 0.00 0.00 0.00 0.00 0.00 0.00 0.00 0.00 0.00 0.00 0.00 0.00 0.01 0.01 0.01 0.01
0.00 0.00 0.00 0.00 0.00 0.00 0.00 0.00 0.00 0.00 0.00 0.00 0.01 0.01 0.01 0.01 0.00 0.00 0.00 0.00 0.00 0.00 0.00 0.00 0.00 0.00 0.00 0.00 0.00 0.00 0.00 0.00 0.00 0.00 0.00 0.01 0.01 0.01
0.00 0.00 0.00 0.00 0.00 0.00 0.00 0.00 0.00 0.00 0.00 0.00 0.00 0.00 0.00 0.00 0.00 0.00 0.00 0.00 0.00 0.00 0.00 0.00 0.00 0.00 0.00 0.00 0.00 0.00 0.00 0.00 0.00 0.00 0.00 0.00 0.00 0.00
0.00 0.00 0.00 0.00 0.00 0.00 0.00 0.00 0.00 0.00 0.00 0.00 0.00 0.00 0.00 0.00 0.00 0.00 0.00 0.00 0.00 0.00 0.00 0.00 0.00 0.00 0.00 0.00 0.00 0.00 0.00 0.00 0.00 0.00 0.00 0.00 0.00 0.00
0.00 0.00 0.00 0.00 0.00 0.00 0.00 0.00 0.00 0.00 0.00 0.00 0.00 0.00 0.00 0.00 0.00 0.00 0.00 0.00 0.00 0.00 0.00 0.00 0.00 0.00 0.00 0.00 0.00 0.00 0.00 0.00 0.00 0.00 0.00 0.00 0.00 0.00
0.00 0.00 0.00 0.00 0.00 0.00 0.00 0.00 0.00 0.00 0.00 0.00 0.00 0.00 0.00 0.00 0.00 0.00 0.00 0.00 0.00 0.00 0.00 0.00 0.00 0.00 0.00 0.00 0.00 0.00 0.00 0.00 0.00 0.00 0.00 0.00 0.00 0.00
0.00 0.00 0.00 0.00 0.00 0.00 0.00 0.00 0.00 0.00 0.00 0.00 0.00 0.00 0.00 0.00 0.00 0.00 0.00 0.00 0.00 0.00 0.00 0.00 0.00 0.00 0.00 0.00 0.00 0.00 0.00 0.00 0.00 0.00 0.00 0.00 0.00 0.00
0.00 0.00 0.00 0.00 0.00 0.00 0.00 0.00 0.00 0.00 0.00 0.00 0.00 0.00 0.00 0.00 0.00 0.00 0.00 0.00 0.00 0.00 0.00 0.00 0.00 0.00 0.00 0.00 0.00 0.00 0.00 0.00 0.00 0.00 0.00 0.00 0.00 0.00
0.00 0.00 0.00 0.00 0.00 0.00 0.00 0.00 0.00 0.00 0.00 0.00 0.00 0.00 0.00 0.00 0.00 0.00 0.00 0.00 0.00 0.00 0.00 0.00 0.00 0.00 0.00 0.00 0.00 0.00 0.00 0.00 0.00 0.00 0.00 0.00 0.00 0.00
0.00 0.00 0.00 0.00 0.00 0.00 0.00 0.00 0.00 0.00 0.00 0.00 0.00 0.00 0.00 0.00 0.00 0.00 0.00 0.00 0.00 0.00 0.00 0.00 0.00 0.00 0.01 0.01 0.00 0.00 0.00 0.00 0.00 0.00 0.00 0.00 0.00 0.00
0.00 0.00 0.00 0.00 0.00 0.00 0.00 0.00 0.00 0.00 0.00 0.00 0.00 0.00 0.00 0.00 0.00 0.00 0.00 0.00 0.00 0.00 0.00 0.00 0.00 0.00 0.01 0.00 0.00 0.00 0.00 0.00 0.00 0.00 0.00 0.00 0.00 0.00
0.00 0.00 0.00 0.00 0.00 0.00 0.00 0.00 0.00 0.00 0.00 0.00 0.00 0.00 0.00 0.00 0.00 0.00 0.00 0.00 0.00 0.00 0.00 0.00 0.00 0.00 0.00 0.00 0.00 0.00 0.00 0.00 0.00 0.00 0.00 0.00 0.00 0.00
0.00 0.00 0.00 0.00 0.00 0.00 0.00 0.00 0.00 0.00 0.00 0.00 0.00 0.00 0.00 0.00 0.00 0.00 0.00 0.00 0.00 0.00 0.00 0.00 0.00 0.00 0.00 0.00 0.00 0.00 0.00 0.00 0.00 0.00 0.00 0.00 0.00 0.00
0.00 0.00 0.00 0.00 0.00 0.00 0.00 0.00 0.00 0.00 0.00 0.00 0.00 0.00 0.00 0.00 0.00 0.00 0.00 0.00 0.00 0.00 0.00 0.00 0.00 0.01 0.01 0.00 0.00 0.00 0.00 0.00 0.00 0.00 0.00 0.00 0.00 0.00
0.00 0.00 0.00 0.00 0.00 0.00 0.00 0.00 0.00 0.00 0.00 0.00 0.00 0.00 0.00 0.00 0.00 0.00 0.00 0.00 0.00 0.00 0.00 0.00 0.00 0.00 0.01 0.00 0.00 0.00 0.00 0.00 0.00 0.00 0.00 0.00 0.00 0.00
0.00 0.00 0.00 0.00 0.01 0.01 0.01 0.00 0.00 0.00 0.00 0.00 0.00 0.00 0.00 0.00 0.00 0.00 0.00 0.00 0.00 0.00 0.00 0.00 0.00 0.00 0.01 0.01 0.01 0.00 0.00 0.00 0.00 0.00 0.00 0.01 0.00 0.00
0.01 0.01 0.01 0.01 0.01 0.01 0.01 0.01 0.01 0.01 0.01 0.01 0.00 0.00 0.00 0.00 0.00 0.00 0.00 0.00 0.00 0.00 0.00 0.00 0.00 0.00 0.01 0.01 0.01 0.00 0.00 0.00 0.00 0.00 0.00 0.01 0.01 0.01
0.01 0.02 0.02 0.02 0.02 0.02 0.02 0.02 0.02 0.01 0.01 0.01 0.01 0.01 0.01 0.01 0.01 0.01 0.01 0.00 0.00 0.00 0.00 0.00 0.00 0.00 0.01 0.01 0.01 0.00 0.00 0.00 0.00 0.00 0.00 0.00 0.00 0.00
MSLP
1020.61 1020.66 1020.68 1020.67 1020.65 1020.63 1020.65 1020.75 1020.93 1021.22 1021.59 1022.01 1022.45 1022.84 1023.16 1023.35 1023.42 1023.35 1023.18 1022.93 1022.62 1022.29 1021.94 1021.59 1021.23 1020.85 1020.45 1020.04 1019.64 1019.29 1019.01 1018.86 1018.86 1019.04 1019.38 1019.86 1020.44 1021.05
1020.90 1020.93 1020.90 1020.84 1020.75 1020.66 1020.63 1020.67 1020.82 1021.08 1021.45 1021.89 1022.35 1022.80 1023.17 1023.44 1023.58 1023.60 1023.52 1023.34 1023.12 1022.86 1022.59 1022.30 1022.00 1021.68 1021.33 1020.96 1020.58 1020.24 1019.96 1019.78 1019.73 1019.84 1020.09 1020.47 1020.94 1021.45
1021.20 1021.21 1021.16 1021.06 1020.91 1020.78 1020.69 1020.68 1020.79 1021.03 1021.38 1021.83 1022.32 1022.81 1023.24 1023.57 1023.79 1023.89 1023.88 1023.78 1023.63 1023.44 1023.24 1023.01 1022.77 1022.51 1022.21 1021.89 1021.56 1021.25 1020.98 1020.80 1020.72 1020.77 1020.94 1021.23 1021.58 1021.97
1021.51 1021.53 1021.47 1021.34 1021.17 1021.00 1020.87 1020.82 1020.90 1021.11 1021.45 1021.89 1022.39 1022.90 1023.37 1023.75 1024.03 1024.19 1024.25 1024.22 1024.12 1023.99 1023.84 1023.67 1023.48 1023.27 1023.03 1022.76 1022.48 1022.21 1021.97 1021.79 1021.70 1021.71 1021.82 1022.02 1022.27 1022.54
1021.82 1021.87 1021.82 1021.70 1021.53 1021.34 1021.18 1021.11 1021.15 1021.33 1021.64 1022.07 1022.56 1023.07 1023.56 1023.97 1024.28 1024.49 1024.59 1024.61 1024.57 1024.48 1024.37 1024.24 1024.09 1023.92 1023.73 1023.50 1023.27 1023.04 1022.83 1022.67 1022.57 1022.56 1022.62 1022.76 1022.93 1023.11
1022.15 1022.23 1022.22 1022.12 1021.96 1021.77 1021.60 1021.51 1021.52 1021.67 1021.95 1022.34 1022.81 1023.30 1023.78 1024.20 1024.53 1024.76 1024.90 1024.95 1024.94 1024.89 1024.81 1024.71 1024.59 1024.46 1024.29 1024.11 1023.91 1023.71 1023.52 1023.38 1023.28 1023.26 1023.29 1023.38 1023.49 1023.61
1022.49 1022.61 1022.63 1022.56 1022.42 1022.24 1022.07 1021.97 1021.96 1022.07 1022.31 1022.66 1023.09 1023.55 1024.01 1024.41 1024.75 1025.00 1025.16 1025.24 1025.26 1025.24 1025.18 1025.11 1025.01 1024.89 1024.75 1024.59 1024.41 1024.22 1024.05 1023.91 1023.81 1023.77 1023.78 1023.84 1023.92 1024.00
1022.81 1022.95 1023.01 1022.96 1022.84 1022.68 1022.53 1022.41 1022.39 1022.47 1022.67 1022.98 1023.36 1023.78 1024.21 1024.60 1024.93 1025.18 1025.36 1025.47 1025.52 1025.53 1025.50 1025.45 1025.37 1025.27 1025.14 1024.98 1024.80 1024.62 1024.44 1024.30 1024.19 1024.13 1024.12 1024.15 1024.22 1024.28
1023.07 1023.23 1023.30 1023.28 1023.18 1023.03 1022.89 1022.79 1022.75 1022.82 1022.99 1023.26 1023.60 1023.98 1024.38 1024.75 1025.07 1025.33 1025.53 1025.67 1025.75 1025.79 1025.80 1025.77 1025.71 1025.62 1025.49 1025.33 1025.15 1024.95 1024.76 1024.59 1024.46 1024.38 1024.35 1024.36 1024.41 1024.47
1023.23 1023.38 1023.46 1023.45 1023.37 1023.25 1023.13 1023.04 1023.02 1023.08 1023.24 1023.48 1023.79 1024.15 1024.52 1024.87 1025.19 1025.46 1025.68 1025.84 1025.96 1026.03 1026.07 1026.08 1026.04 1025.96 1025.84 1025.68 1025.48 1025.27 1025.05 1024.86 1024.70 1024.58 1024.52 1024.51 1024.54 1024.60
1023.25 1023.39 1023.46 1023.47 1023.41 1023.33 1023.24 1023.18 1023.19 1023.26 1023.42 1023.66 1023.95 1024.29 1024.64 1024.99 1025.30 1025.58 1025.81 1026.00 1026.15 1026.26 1026.34 1026.37 1026.36 1026.30 1026.19 1026.03 1025.82 1025.60 1025.36 1025.13 1024.94 1024.79 1024.70 1024.66 1024.67 1024.71
1023.13 1023.26 1023.33 1023.35 1023.33 1023.28 1023.24 1023.23 1023.27 1023.38 1023.56 1023.80 1024.10 1024.43 1024.77 1025.11 1025.42 1025.70 1025.94 1026.15 1026.32 1026.46 1026.56 1026.62 1026.64 1026.60 1026.51 1026.36 1026.16 1025.93 1025.68 1025.44 1025.22 1025.04 1024.91 1024.84 1024.81 1024.82
1022.89 1023.01 1023.09 1023.14 1023.16 1023.16 1023.18 1023.22 1023.31 1023.46 1023.67 1023.94 1024.24 1024.57 1024.90 1025.22 1025.53 1025.80 1026.04 1026.26 1026.44 1026.59 1026.71 1026.80 1026.84 1026.82 1026.76 1026.63 1026.45 1026.23 1025.99 1025.74 1025.50 1025.30 1025.14 1025.03 1024.97 1024.94
1022.56 1022.70 1022.80 1022.88 1022.95 1023.01 1023.08 1023.19 1023.33 1023.52 1023.76 1024.05 1024.36 1024.68 1025.01 1025.32 1025.61 1025.86 1026.10 1026.30 1026.48 1026.63 1026.76 1026.86 1026.92 1026.94 1026.90 1026.80 1026.66 1026.46 1026.24 1026.00 1025.76 1025.54 1025.36 1025.21 1025.10 1025.02
1022.19 1022.35 1022.50 1022.62 1022.74 1022.85 1022.98 1023.13 1023.32 1023.55 1023.81 1024.11 1024.42 1024.74 1025.06 1025.35 1025.62 1025.86 1026.06 1026.25 1026.41 1026.56 1026.69 1026.79 1026.86 1026.90 1026.89 1026.83 1026.72 1026.56 1026.37 1026.15 1025.92 1025.70 1025.49 1025.31 1025.16 1025.02
1021.81 1022.01 1022.20 1022.37 1022.53 1022.68 1022.85 1023.04 1023.25 1023.50 1023.78 1024.08 1024.39 1024.70 1025.00 1025.27 1025.52 1025.74 1025.92 1026.09 1026.23 1026.36 1026.48 1026.58 1026.66 1026.71 1026.73 1026.70 1026.62 1026.50 1026.33 1026.14 1025.92 1025.70 1025.48 1025.27 1025.07 1024.89
1021.44 1021.68 1021.90 1022.10 1022.29 1022.47 1022.66 1022.86 1023.08 1023.33 1023.61 1023.90 1024.20 1024.50 1024.78 1025.04 1025.28 1025.48 1025.65 1025.80 1025.93 1026.05 1026.16 1026.25 1026.33 1026.38 1026.41 1026.40 1026.35 1026.25 1026.11 1025.94 1025.74 1025.52 1025.29 1025.05 1024.81 1024.58
1021.04 1021.30 1021.55 1021.77 1021.97 1022.16 1022.34 1022.54 1022.75 1022.98 1023.24 1023.52 1023.81 1024.10 1024.37 1024.63 1024.87 1025.07 1025.24 1025.39 1025.52 1025.63 1025.73 1025.82 1025.89 1025.94 1025.97 1025.97 1025.92 1025.84 1025.72 1025.55 1025.36 1025.14 1024.89 1024.63 1024.37 1024.10
1020.57 1020.84 1021.10 1021.32 1021.51 1021.69 1021.86 1022.03 1022.21 1022.42 1022.66 1022.92 1023.20 1023.48 1023.77 1024.04 1024.29 1024.51 1024.71 1024.88 1025.02 1025.14 1025.24 1025.33 1025.39 1025.43 1025.45 1025.44 1025.40 1025.31 1025.19 1025.02 1024.82 1024.59 1024.34 1024.06 1023.78 1023.48
1019.97 1020.25 1020.49 1020.70 1020.87 1021.03 1021.17 1021.31 1021.47 1021.65 1021.86 1022.11 1022.38 1022.68 1022.98 1023.28 1023.56 1023.82 1024.06 1024.26 1024.44 1024.58 1024.70 1024.79 1024.85 1024.89 1024.89 1024.87 1024.81 1024.71 1024.58 1024.40 1024.19 1023.96 1023.69 1023.40 1023.10 1022.80
1019.23 1019.48 1019.70 1019.89 1020.04 1020.17 1020.28 1020.40 1020.53 1020.69 1020.89 1021.13 1021.41 1021.72 1022.04 1022.38 1022.71 1023.02 1023.31 1023.56 1023.78 1023.96 1024.10 1024.20 1024.27 1024.31 1024.31 1024.27 1024.19 1024.08 1023.94 1023.75 1023.54 1023.30 1023.03 1022.74 1022.43 1022.12
1018.33 1018.55 1018.75 1018.91 1019.04 1019.14 1019.24 1019.34 1019.45 1019.60 1019.79 1020.03 1020.32 1020.65 1021.00 1021.37 1021.75 1022.11 1022.45 1022.76 1023.03 1023.25 1023.43 1023.57 1023.65 1023.70 1023.70 1023.66 1023.58 1023.46 1023.31 1023.12 1022.91 1022.67 1022.41 1022.13 1021.83 1021.53
1017.32 1017.52 1017.68 1017.82 1017.93 1018.02 1018.11 1018.20 1018.31 1018.45 1018.64 1018.88 1019.18 1019.52 1019.90 1020.30 1020.71 1021.11 1021.50 1021.86 1022.18 1022.45 1022.67 1022.84 1022.96 1023.03 1023.05 1023.02 1022.96 1022.85 1022.71 1022.54 1022.34 1022.11 1021.87 1021.61 1021.33 1021.05
Thickness
5573 5571 5569 5566 5564 5562 5561 5559 5557 5555 5548 5536 5530 5527 5525 5523 5521 5520 5518 5517 5517 5517 5516 5515 5515 5514 5515 5516 5515 5515 5516 5516 5515 5513 5512 5510 5508 5507
5561 5559 5556 5554 5552 5550 5548 5546 5544 5544 5539 5527 5521 5517 5514 5512 5510 5509 5507 5506 5505 5505 5505 5504 5504 5504 5504 5504 5504 5504 5505 5505 5504 5503 5502 5500 5498 5497
5547 5546 5543 5541 5539 5537 5536 5534 5532 5531 5527 5517 5511 5507 5504 5502 5499 5498 5497 5496 5495 5494 5494 5494 5493 5493 5493 5492 5492 5493 5493 5493 5492 5492 5490 5489 5487 5486
5534 5532 5530 5529 5526 5524 5523 5521 5520 5518 5516 5508 5501 5496 5494 5492 5489 5488 5486 5485 5485 5484 5484 5483 5483 5483 5482 5482 5481 5481 5481 5481 5480 5479 5478 5477 5476 5475
5522 5520 5517 5516 5513 5512 5510 5509 5507 5506 5504 5499 5492 5487 5484 5481 5479 5477 5476 5475 5475 5474 5473 5473 5473 5472 5472 5471 5470 5470 5470 5469 5468 5467 5466 5465 5464 5463
5509 5507 5505 5503 5501 5499 5498 5496 5495 5493 5491 5487 5482 5477 5473 5471 5469 5466 5464 5463 5463 5463 5463 5463 5462 5462 5461 5461 5460 5459 5458 5457 5456 5455 5454 5452 5451 5450
5495 5494 5492 5491 5490 5489 5487 5485 5484 5481 5479 5476 5471 5467 5463 5461 5459 5456 5454 5452 5452 5452 5452 5453 5452 5452 5451 5450 5449 5449 5447 5446 5445 5443 5442 5440 5439 5438
5483 5481 5480 5479 5479 5478 5477 5475 5473 5471 5468 5465 5461 5459 5455 5453 5450 5448 5445 5443 5442 5442 5442 5442 5442 5441 5441 5440 5439 5438 5437 5435 5434 5432 5430 5428 5427 5425
5471 5469 5468 5467 5465 5464 5464 5463 5462 5462 5461 5457 5454 5451 5448 5446 5443 5440 5437 5435 5434 5433 5433 5432 5432 5431 5431 5430 5429 5428 5426 5425 5423 5421 5419 5417 5415 5413
5460 5459 5457 5455 5454 5453 5451 5449 5449 5449 5449 5448 5446 5444 5442 5439 5437 5434 5430 5427 5425 5424 5424 5422 5421 5421 5421 5420 5419 5418 5416 5414 5412 5410 5408 5406 5403 5401
5450 5449 5447 5446 5446 5444 5441 5439 5438 5438 5438 5437 5436 5435 5433 5431 5429 5425 5421 5419 5417 5415 5414 5413 5411 5410 5410 5410 5409 5407 5405 5403 5401 5399 5397 5394 5392 5390
5441 5440 5439 5438 5437 5436 5432 5430 5428 5427 5427 5426 5425 5424 5423 5421 5420 5417 5414 5409 5407 5405 5405 5403 5400 5399 5397 5399 5398 5396 5394 5392 5390 5388 5386 5384 5381 5379
5432 5431 5430 5431 5430 5428 5425 5422 5422 5420 5418 5416 5414 5413 5412 5410 5409 5408 5406 5403 5399 5397 5397 5394 5390 5387 5384 5385 5386 5386 5383 5381 5379 5377 5375 5373 5370 5368
5426 5424 5423 5423 5423 5421 5418 5417 5416 5414 5410 5408 5406 5404 5402 5401 5400 5398 5397 5395 5393 5391 5389 5386 5382 5378 5374 5372 5373 5374 5373 5371 5368 5366 5364 5361 5359 5356
5420 5419 5417 5417 5416 5414 5412 5411 5409 5406 5403 5400 5399 5397 5395 5394 5391 5389 5387 5386 5384 5382 5380 5378 5375 5371 5367 5364 5362 5361 5360 5360 5358 5355 5353 5350 5348 5345
5415 5413 5412 5411 5409 5407 5405 5404 5401 5399 5397 5394 5392 5390 5388 5385 5383 5381 5378 5376 5374 5373 5372 5369 5366 5363 5359 5357 5354 5352 5350 5347 5348 5345 5342 5340 5339 5336
5408 5405 5403 5402 5400 5398 5397 5395 5394 5392 5391 5388 5386 5383 5381 5378 5376 5373 5370 5367 5365 5363 5361 5360 5358 5355 5352 5349 5347 5346 5343 5340 5338 5335 5333 5331 5330 5328
5403 5399 5398 5396 5395 5393 5392 5390 5388 5387 5385 5383 5380 5377 5375 5372 5369 5365 5363 5360 5358 5356 5353 5351 5348 5346 5343 5343 5343 5340 5336 5333 5330 5327 5324 5321 5321 5321
5399 5396 5394 5392 5390 5389 5387 5385 5384 5382 5380 5377 5375 5372 5369 5365 5362 5359 5356 5354 5351 5349 5346 5343 5340 5336 5333 5332 5335 5334 5329 5325 5322 5319 5316 5314 5312 5313
5395 5393 5390 5388 5386 5384 5382 5381 5379 5377 5374 5372 5369 5366 5363 5360 5356 5354 5351 5348 5345 5342 5339 5336 5333 5330 5327 5324 5323 5324 5322 5318 5314 5310 5309 5307 5306 5306
5392 5390 5387 5385 5383 5381 5379 5377 5374 5372 5370 5367 5365 5362 5358 5355 5352 5349 5346 5343 5340 5336 5333 5331 5329 5326 5321 5316 5315 5316 5314 5312 5308 5304 5301 5299 5298 5299
5387 5386 5384 5382 5380 5377 5375 5373 5370 5368 5366 5363 5360 5357 5354 5350 5347 5344 5341 5337 5335 5332 5329 5325 5321 5317 5313 5311 5310 5308 5306 5304 5302 5300 5297 5295 5291 5289
5384 5382 5380 5378 5376 5374 5371 5369 5366 5365 5362 5359 5356 5353 5349 5346 5343 5339 5336 5332 5329 5325 5321 5317 5313 5309 5307 5305 5303 5301 5299 5297 5295 5293 5293 5291 5290 5288